Home > Weather > George Town > Past weeks

Flag for Cayman Islands Past Weather in George Town, Cayman Islands — Yesterday and Last 2 Weeks

Now
90 °F

Scattered clouds.


Feels Like: 108 °F
Forecast: 84 / 87 °F
Wind: 9 mph from Northeast

Location: Owen Roberts Airportgrand Cayman

Current Time: Jul 29, 2016 at 2:55:25 PM

Latest Report: Jul 29, 2016 at 2:00 PM


Visibility: N/A

Pressure: 29.98 "Hg

Humidity: 75%

Dew Point: 81 °F

Location of George TownLocation

Past Weather in George Town — Graph

°F

George Town Temperature Yesterday

Maximum temperature yesterday: 90 °F (at 10:00 AM)
Minimum temperature yesterday: 82 °F (at 12:00 AM)
Average temperature yesterday: 86 °F

High & Low Weather Summary for the Past Weeks

 TemperatureHumidityPressure
High91 °F (Jul 21, 12:00 PM)100% (Jul 18, 6:00 AM)30.04 "Hg (Jul 18, 6:00 AM)
Low77 °F (Jul 19, 6:00 AM)59% (Jul 17, 12:00 PM)29.92 "Hg (Jul 18, 5:00 PM)
Average86 °F79%29.98 "Hg
* Reported Jul 14 1:51 PM — Jul 29 1:00 PM, George Town, Weather by CustomWeather, © 2016

Note: Actual official high and low records may vary slightly from our data, if they occured in-between our weather recording intervals... More about our weather records

Advertising

George Town Weather History for the Previous 24 Hours

Scroll right to see more
 ConditionsComfort  
Time TempWeatherWind HumidityBarometerVisibility
1:00 PM
Fri, Jul 29
90 °FPassing clouds.9 mph71%29.98 "HgN/A
12:00 PM88 °FPassing clouds.9 mph79%29.98 "HgN/A
11:00 AM90 °FPassing clouds.8 mph75%30.01 "HgN/A
10:00 AM88 °FScattered clouds.12 mph75%29.98 "HgN/A
9:00 AM90 °FPassing clouds.12 mph71%29.98 "HgN/A
8:00 AM86 °FPassing clouds.9 mph79%29.98 "HgN/A
7:00 AM84 °FPassing clouds.8 mph84%29.98 "HgN/A
6:00 AM84 °FPassing clouds.8 mph84%29.95 "HgN/A
12:00 AM84 °FPassing clouds.9 mph84%29.98 "HgN/A
10:00 PM
Thu, Jul 28
84 °FPassing clouds.8 mph84%29.98 "HgN/A
9:00 PM84 °FPassing clouds.12 mph84%29.95 "HgN/A
8:00 PM86 °FPassing clouds.12 mph84%29.95 "HgN/A
7:00 PM86 °FPassing clouds.12 mph84%29.95 "HgN/A
6:00 PM86 °FPassing clouds.9 mph84%29.92 "HgN/A
5:00 PM86 °FPassing clouds.14 mph75%29.92 "HgN/A
4:00 PM88 °FPassing clouds.14 mph75%29.92 "HgN/A
3:00 PM86 °FPassing clouds.14 mph75%29.95 "HgN/A
2:00 PM90 °FScattered clouds.16 mph71%29.95 "HgN/A
Weather by CustomWeather, © 2016

See weather overviewHow to use our weather pages